Check out our new PWSWeather beta!
PWSweather.com
Personal Weather Stations
Station Observations
AZALEAPK1
San Diego, CA 92105

San Diego, CA 92105

Lat: 32.736, Lon: -117.108

Elevation: 302

Station Type: LaCrosse WS-2813U-IT

High Low Average
Temperature 81.4°F27.4°C 63.9°F17.7°C 72.6°F22.6°C
Dew Point -- -- --
Winds 10.1 mph 16.3 kmh Calm Calm 1.0 mph N1.6 kmh N
Wind Gusts 10.3 mph16.6 kmh -- 2.0 mph3.2 kmh
Humidity - - -
Pressure 30.02 in1016.6 mb 29.94 in1013.9 mb -
Precipitation 0.32 in8.1 mm - -
Hour Temp Dew Point Humidity Winds Wind Gusts Pressure Precip Precip Rate Daily Precip Total
12:00 AM 67.3°F19.6°C -- - Calm Calm -- 29.98 in1015.2 mb 0.00 in0.0 mm 0.00 in0.0 mm 0.00 in0.0 mm
12:05 AM 67.3°F19.6°C -- - Calm Calm -- 29.98 in1015.2 mb 0.00 in0.0 mm 0.00 in0.0 mm 0.00 in0.0 mm
12:10 AM 67.3°F19.6°C -- - Calm Calm -- 29.98 in1015.2 mb 0.00 in0.0 mm 0.00 in0.0 mm 0.00 in0.0 mm
12:16 AM 67.3°F19.6°C -- - Calm Calm -- 29.98 in1015.2 mb 0.00 in0.0 mm 0.00 in0.0 mm 0.00 in0.0 mm
12:21 AM 67.1°F19.5°C -- - Calm Calm -- 29.98 in1015.2 mb 0.00 in0.0 mm 0.00 in0.0 mm 0.00 in0.0 mm
12:27 AM 67.1°F19.5°C -- - Calm Calm -- 29.98 in1015.2 mb 0.00 in0.0 mm 0.00 in0.0 mm 0.00 in0.0 mm
12:32 AM 67.1°F19.5°C -- - Calm Calm -- 29.99 in1015.6 mb 0.00 in0.0 mm 0.00 in0.0 mm 0.00 in0.0 mm
12:37 AM 67.0°F19.4°C -- - Calm Calm -- 29.98 in1015.2 mb 0.00 in0.0 mm 0.00 in0.0 mm 0.00 in0.0 mm
12:43 AM 67.0°F19.4°C -- - Calm Calm -- 29.99 in1015.6 mb 0.00 in0.0 mm 0.00 in0.0 mm 0.00 in0.0 mm
12:48 AM 67.0°F19.4°C -- - Calm Calm -- 29.98 in1015.2 mb 0.00 in0.0 mm 0.00 in0.0 mm 0.00 in0.0 mm
12:53 AM 66.8°F19.3°C -- - Calm Calm -- 29.98 in1015.2 mb 0.00 in0.0 mm 0.00 in0.0 mm 0.00 in0.0 mm
12:58 AM 66.8°F19.3°C -- - Calm Calm -- 29.98 in1015.2 mb 0.00 in0.0 mm 0.00 in0.0 mm 0.00 in0.0 mm
01:03 AM 66.8°F19.3°C -- - Calm Calm -- 29.98 in1015.2 mb 0.00 in0.0 mm 0.00 in0.0 mm 0.00 in0.0 mm
01:08 AM 66.6°F19.2°C -- - Calm Calm -- 29.98 in1015.2 mb 0.00 in0.0 mm 0.00 in0.0 mm 0.00 in0.0 mm
01:13 AM 66.6°F19.2°C -- - Calm Calm -- 29.98 in1015.2 mb 0.00 in0.0 mm 0.00 in0.0 mm 0.00 in0.0 mm
01:18 AM 66.4°F19.1°C -- - Calm Calm -- 29.98 in1015.2 mb 0.00 in0.0 mm 0.00 in0.0 mm 0.00 in0.0 mm
01:24 AM 66.4°F19.1°C -- - Calm Calm -- 29.98 in1015.2 mb 0.00 in0.0 mm 0.00 in0.0 mm 0.00 in0.0 mm
01:29 AM 66.4°F19.1°C -- - Calm Calm -- 29.98 in1015.2 mb 0.00 in0.0 mm 0.00 in0.0 mm 0.00 in0.0 mm
01:35 AM 66.2°F19.0°C -- - Calm Calm -- 29.98 in1015.2 mb 0.00 in0.0 mm 0.00 in0.0 mm 0.00 in0.0 mm
01:40 AM 66.2°F19.0°C -- - Calm Calm -- 29.98 in1015.2 mb 0.00 in0.0 mm 0.00 in0.0 mm 0.00 in0.0 mm
01:45 AM 66.1°F18.9°C -- - Calm Calm -- 29.98 in1015.2 mb 0.00 in0.0 mm 0.00 in0.0 mm 0.00 in0.0 mm
01:50 AM 66.1°F18.9°C -- - Calm Calm -- 29.97 in1014.9 mb 0.00 in0.0 mm 0.00 in0.0 mm 0.00 in0.0 mm
01:56 AM 66.1°F18.9°C -- - Calm Calm -- 29.97 in1014.9 mb 0.00 in0.0 mm 0.00 in0.0 mm 0.00 in0.0 mm
02:03 AM 66.1°F18.9°C -- - Calm Calm -- 29.97 in1014.9 mb 0.00 in0.0 mm 0.00 in0.0 mm 0.00 in0.0 mm
02:08 AM 66.1°F18.9°C -- - Calm Calm -- 29.97 in1014.9 mb 0.00 in0.0 mm 0.00 in0.0 mm 0.00 in0.0 mm
02:14 AM 65.9°F18.8°C -- - Calm Calm -- 29.97 in1014.9 mb 0.00 in0.0 mm 0.00 in0.0 mm 0.00 in0.0 mm
02:19 AM 65.9°F18.8°C -- - Calm Calm -- 29.98 in1015.2 mb 0.00 in0.0 mm 0.00 in0.0 mm 0.00 in0.0 mm
02:25 AM 65.9°F18.8°C -- - Calm Calm -- 29.98 in1015.2 mb 0.00 in0.0 mm 0.00 in0.0 mm 0.00 in0.0 mm
02:30 AM 65.9°F18.8°C -- - Calm Calm -- 29.98 in1015.2 mb 0.00 in0.0 mm 0.00 in0.0 mm 0.00 in0.0 mm
02:35 AM 65.7°F18.7°C -- - Calm Calm -- 29.98 in1015.2 mb 0.00 in0.0 mm 0.00 in0.0 mm 0.00 in0.0 mm
02:40 AM 65.7°F18.7°C -- - Calm Calm -- 29.98 in1015.2 mb 0.00 in0.0 mm 0.00 in0.0 mm 0.00 in0.0 mm
02:45 AM 65.7°F18.7°C -- - Calm Calm -- 29.98 in1015.2 mb 0.00 in0.0 mm 0.00 in0.0 mm 0.00 in0.0 mm
02:50 AM 65.5°F18.6°C -- - Calm Calm -- 29.98 in1015.2 mb 0.00 in0.0 mm 0.00 in0.0 mm 0.00 in0.0 mm
02:55 AM 65.5°F18.6°C -- - Calm Calm -- 29.97 in1014.9 mb 0.00 in0.0 mm 0.00 in0.0 mm 0.00 in0.0 mm
03:00 AM 65.5°F18.6°C -- - Calm Calm -- 29.97 in1014.9 mb 0.00 in0.0 mm 0.00 in0.0 mm 0.00 in0.0 mm
03:05 AM 65.3°F18.5°C -- - Calm Calm -- 29.98 in1015.2 mb 0.00 in0.0 mm 0.00 in0.0 mm 0.00 in0.0 mm
03:12 AM 65.2°F18.4°C -- - Calm Calm -- 29.98 in1015.2 mb 0.00 in0.0 mm 0.00 in0.0 mm 0.00 in0.0 mm
03:17 AM 65.2°F18.4°C -- - Calm Calm -- 29.98 in1015.2 mb 0.00 in0.0 mm 0.00 in0.0 mm 0.00 in0.0 mm
03:22 AM 65.2°F18.4°C -- - Calm Calm -- 29.98 in1015.2 mb 0.00 in0.0 mm 0.00 in0.0 mm 0.00 in0.0 mm
03:27 AM 65.2°F18.4°C -- - Calm Calm -- 29.98 in1015.2 mb 0.00 in0.0 mm 0.00 in0.0 mm 0.00 in0.0 mm
03:34 AM 65.0°F18.3°C -- - Calm Calm -- 29.97 in1014.9 mb 0.00 in0.0 mm 0.00 in0.0 mm 0.00 in0.0 mm
03:43 AM 65.0°F18.3°C -- - Calm Calm -- 29.97 in1014.9 mb 0.00 in0.0 mm 0.00 in0.0 mm 0.00 in0.0 mm
03:50 AM 65.0°F18.3°C -- - Calm Calm -- 29.97 in1014.9 mb 0.00 in0.0 mm 0.00 in0.0 mm 0.00 in0.0 mm
03:55 AM 64.8°F18.2°C -- - Calm Calm -- 29.98 in1015.2 mb 0.00 in0.0 mm 0.00 in0.0 mm 0.00 in0.0 mm
04:00 AM 64.8°F18.2°C -- - Calm Calm -- 29.98 in1015.2 mb 0.00 in0.0 mm 0.00 in0.0 mm 0.00 in0.0 mm
04:05 AM 64.8°F18.2°C -- - Calm Calm -- 29.98 in1015.2 mb 0.00 in0.0 mm 0.00 in0.0 mm 0.00 in0.0 mm
04:10 AM 64.8°F18.2°C -- - Calm Calm -- 29.98 in1015.2 mb 0.00 in0.0 mm 0.00 in0.0 mm 0.00 in0.0 mm
04:17 AM 64.8°F18.2°C -- - Calm Calm -- 29.98 in1015.2 mb 0.00 in0.0 mm 0.00 in0.0 mm 0.00 in0.0 mm
04:22 AM 64.8°F18.2°C -- - Calm Calm -- 29.98 in1015.2 mb 0.00 in0.0 mm 0.00 in0.0 mm 0.00 in0.0 mm
04:29 AM 64.6°F18.1°C -- - Calm Calm -- 29.98 in1015.2 mb 0.00 in0.0 mm 0.00 in0.0 mm 0.00 in0.0 mm
04:34 AM 64.6°F18.1°C -- - Calm Calm -- 29.98 in1015.2 mb 0.00 in0.0 mm 0.00 in0.0 mm 0.00 in0.0 mm
04:39 AM 64.6°F18.1°C -- - Calm Calm -- 29.98 in1015.2 mb 0.00 in0.0 mm 0.00 in0.0 mm 0.00 in0.0 mm
04:44 AM 64.6°F18.1°C -- - Calm Calm -- 29.98 in1015.2 mb 0.00 in0.0 mm 0.00 in0.0 mm 0.00 in0.0 mm
04:49 AM 64.6°F18.1°C -- - Calm Calm -- 29.98 in1015.2 mb 0.00 in0.0 mm 0.00 in0.0 mm 0.00 in0.0 mm
04:54 AM 64.4°F18.0°C -- - Calm Calm -- 29.98 in1015.2 mb 0.00 in0.0 mm 0.00 in0.0 mm 0.00 in0.0 mm
04:59 AM 64.4°F18.0°C -- - Calm Calm -- 29.98 in1015.2 mb 0.00 in0.0 mm 0.00 in0.0 mm 0.00 in0.0 mm
05:05 AM 64.4°F18.0°C -- - Calm Calm -- 29.98 in1015.2 mb 0.00 in0.0 mm 0.00 in0.0 mm 0.00 in0.0 mm
05:10 AM 64.4°F18.0°C -- - Calm Calm -- 29.98 in1015.2 mb 0.00 in0.0 mm 0.00 in0.0 mm 0.00 in0.0 mm
05:15 AM 64.3°F17.9°C -- - Calm Calm -- 29.99 in1015.6 mb 0.00 in0.0 mm 0.00 in0.0 mm 0.00 in0.0 mm
05:20 AM 64.1°F17.8°C -- - Calm Calm -- 29.99 in1015.6 mb 0.00 in0.0 mm 0.00 in0.0 mm 0.00 in0.0 mm
05:25 AM 64.1°F17.8°C -- - Calm Calm -- 29.99 in1015.6 mb 0.00 in0.0 mm 0.00 in0.0 mm 0.00 in0.0 mm
05:30 AM 64.1°F17.8°C -- - Calm Calm -- 29.99 in1015.6 mb 0.00 in0.0 mm 0.00 in0.0 mm 0.00 in0.0 mm
05:36 AM 64.1°F17.8°C -- - Calm Calm -- 29.99 in1015.6 mb 0.00 in0.0 mm 0.00 in0.0 mm 0.00 in0.0 mm
05:41 AM 64.1°F17.8°C -- - Calm Calm -- 29.99 in1015.6 mb 0.00 in0.0 mm 0.00 in0.0 mm 0.00 in0.0 mm
05:47 AM 63.9°F17.7°C -- - Calm Calm -- 29.99 in1015.6 mb 0.00 in0.0 mm 0.00 in0.0 mm 0.00 in0.0 mm
05:53 AM 63.9°F17.7°C -- - Calm Calm -- 29.99 in1015.6 mb 0.00 in0.0 mm 0.00 in0.0 mm 0.00 in0.0 mm
05:59 AM 63.9°F17.7°C -- - Calm Calm -- 29.99 in1015.6 mb 0.00 in0.0 mm 0.00 in0.0 mm 0.00 in0.0 mm
06:04 AM 64.1°F17.8°C -- - Calm Calm -- 29.99 in1015.6 mb 0.00 in0.0 mm 0.00 in0.0 mm 0.00 in0.0 mm
06:09 AM 63.9°F17.7°C -- - Calm Calm -- 30.00 in1015.9 mb 0.00 in0.0 mm 0.00 in0.0 mm 0.00 in0.0 mm
06:16 AM 64.1°F17.8°C -- - Calm Calm -- 29.99 in1015.6 mb 0.00 in0.0 mm 0.00 in0.0 mm 0.00 in0.0 mm
06:22 AM 64.3°F17.9°C -- - Calm Calm -- 30.00 in1015.9 mb 0.00 in0.0 mm 0.00 in0.0 mm 0.00 in0.0 mm
06:29 AM 64.3°F17.9°C -- - Calm Calm -- 30.00 in1015.9 mb 0.00 in0.0 mm 0.00 in0.0 mm 0.00 in0.0 mm
06:34 AM 64.4°F18.0°C -- - Calm Calm -- 30.00 in1015.9 mb 0.00 in0.0 mm 0.00 in0.0 mm 0.00 in0.0 mm
06:39 AM 64.6°F18.1°C -- - Calm Calm -- 30.00 in1015.9 mb 0.00 in0.0 mm 0.00 in0.0 mm 0.00 in0.0 mm
06:44 AM 65.0°F18.3°C -- - Calm Calm -- 30.00 in1015.9 mb 0.00 in0.0 mm 0.00 in0.0 mm 0.00 in0.0 mm
06:50 AM 65.3°F18.5°C -- - Calm Calm -- 30.00 in1015.9 mb 0.00 in0.0 mm 0.00 in0.0 mm 0.00 in0.0 mm
06:54 AM 65.5°F18.6°C -- - Calm Calm -- 30.01 in1016.3 mb 0.00 in0.0 mm 0.00 in0.0 mm 0.00 in0.0 mm
07:00 AM 66.1°F18.9°C -- - Calm Calm -- 30.01 in1016.3 mb 0.00 in0.0 mm 0.00 in0.0 mm 0.00 in0.0 mm
07:05 AM 66.4°F19.1°C -- - Calm Calm -- 30.01 in1016.3 mb 0.00 in0.0 mm 0.00 in0.0 mm 0.00 in0.0 mm
07:10 AM 66.8°F19.3°C -- - Calm Calm -- 30.01 in1016.3 mb 0.00 in0.0 mm 0.00 in0.0 mm 0.00 in0.0 mm
07:15 AM 67.1°F19.5°C -- - Calm Calm -- 30.01 in1016.3 mb 0.00 in0.0 mm 0.00 in0.0 mm 0.00 in0.0 mm
07:20 AM 67.9°F19.9°C -- - Calm Calm -- 30.00 in1015.9 mb 0.00 in0.0 mm 0.00 in0.0 mm 0.00 in0.0 mm
07:25 AM 68.2°F20.1°C -- - Calm Calm -- 30.01 in1016.3 mb 0.00 in0.0 mm 0.00 in0.0 mm 0.00 in0.0 mm
07:31 AM 68.6°F20.3°C -- - Calm Calm -- 30.01 in1016.3 mb 0.00 in0.0 mm 0.00 in0.0 mm 0.00 in0.0 mm
07:36 AM 69.3°F20.7°C -- - Calm Calm -- 30.01 in1016.3 mb 0.00 in0.0 mm 0.00 in0.0 mm 0.00 in0.0 mm
07:42 AM 69.5°F20.8°C -- - Calm Calm -- 30.01 in1016.3 mb 0.00 in0.0 mm 0.00 in0.0 mm 0.00 in0.0 mm
07:47 AM 70.2°F21.2°C -- - Calm Calm -- 30.01 in1016.3 mb 0.00 in0.0 mm 0.00 in0.0 mm 0.00 in0.0 mm
07:53 AM 70.4°F21.3°C -- - Calm Calm -- 30.02 in1016.6 mb 0.00 in0.0 mm 0.00 in0.0 mm 0.00 in0.0 mm
07:59 AM 70.7°F21.5°C -- - Calm Calm -- 30.02 in1016.6 mb 0.00 in0.0 mm 0.00 in0.0 mm 0.00 in0.0 mm
08:04 AM 70.9°F21.6°C -- - Calm Calm -- 30.01 in1016.3 mb 0.00 in0.0 mm 0.00 in0.0 mm 0.00 in0.0 mm
08:09 AM 71.3°F21.8°C -- - Calm Calm -- 30.02 in1016.6 mb 0.00 in0.0 mm 0.00 in0.0 mm 0.00 in0.0 mm
08:15 AM 71.8°F22.1°C -- - Calm Calm -- 30.01 in1016.3 mb 0.00 in0.0 mm 0.00 in0.0 mm 0.00 in0.0 mm
08:21 AM 71.8°F22.1°C -- - Calm Calm -- 30.01 in1016.3 mb 0.00 in0.0 mm 0.00 in0.0 mm 0.00 in0.0 mm
08:26 AM 72.2°F22.3°C -- - Calm Calm -- 30.01 in1016.3 mb 0.00 in0.0 mm 0.00 in0.0 mm 0.00 in0.0 mm
08:31 AM 72.7°F22.6°C -- - Calm Calm -- 30.01 in1016.3 mb 0.00 in0.0 mm 0.00 in0.0 mm 0.00 in0.0 mm
08:36 AM 73.1°F22.8°C -- - Calm Calm -- 30.02 in1016.6 mb 0.00 in0.0 mm 0.00 in0.0 mm 0.00 in0.0 mm
08:41 AM 73.8°F23.2°C -- - Calm Calm -- 30.01 in1016.3 mb 0.00 in0.0 mm 0.00 in0.0 mm 0.00 in0.0 mm
08:46 AM 74.5°F23.6°C -- - Calm Calm -- 30.01 in1016.3 mb 0.00 in0.0 mm 0.00 in0.0 mm 0.00 in0.0 mm
08:53 AM 75.2°F24.0°C -- - Calm Calm -- 30.01 in1016.3 mb 0.00 in0.0 mm 0.00 in0.0 mm 0.00 in0.0 mm
08:58 AM 76.1°F24.5°C -- - Calm Calm -- 30.01 in1016.3 mb 0.00 in0.0 mm 0.00 in0.0 mm 0.00 in0.0 mm
09:03 AM 76.0°F24.4°C -- - Calm Calm -- 30.01 in1016.3 mb 0.00 in0.0 mm 0.00 in0.0 mm 0.00 in0.0 mm
09:08 AM 75.6°F24.2°C -- - Calm Calm -- 30.01 in1016.3 mb 0.00 in0.0 mm 0.00 in0.0 mm 0.00 in0.0 mm
09:14 AM 75.6°F24.2°C -- - Calm Calm -- 30.01 in1016.3 mb 0.00 in0.0 mm 0.00 in0.0 mm 0.00 in0.0 mm
09:19 AM 75.8°F24.3°C -- - Calm Calm -- 30.01 in1016.3 mb 0.00 in0.0 mm 0.00 in0.0 mm 0.00 in0.0 mm
09:24 AM 76.0°F24.4°C -- - Calm Calm -- 30.01 in1016.3 mb 0.00 in0.0 mm 0.00 in0.0 mm 0.00 in0.0 mm
09:29 AM 76.3°F24.6°C -- - Calm Calm -- 30.01 in1016.3 mb 0.00 in0.0 mm 0.00 in0.0 mm 0.00 in0.0 mm
09:34 AM 76.9°F24.9°C -- - Calm Calm -- 30.01 in1016.3 mb 0.00 in0.0 mm 0.00 in0.0 mm 0.00 in0.0 mm
09:39 AM 77.2°F25.1°C -- - Calm Calm -- 30.01 in1016.3 mb 0.00 in0.0 mm 0.00 in0.0 mm 0.00 in0.0 mm
09:44 AM 77.4°F25.2°C -- - Calm Calm -- 30.01 in1016.3 mb 0.00 in0.0 mm 0.00 in0.0 mm 0.00 in0.0 mm
09:49 AM 77.4°F25.2°C -- - Calm Calm -- 30.01 in1016.3 mb 0.00 in0.0 mm 0.00 in0.0 mm 0.00 in0.0 mm
09:55 AM 77.8°F25.4°C -- - Calm Calm -- 30.00 in1015.9 mb 0.00 in0.0 mm 0.00 in0.0 mm 0.00 in0.0 mm
10:00 AM 77.9°F25.5°C -- - Calm Calm -- 30.00 in1015.9 mb 0.00 in0.0 mm 0.00 in0.0 mm 0.00 in0.0 mm
10:05 AM 78.1°F25.6°C -- - Calm Calm -- 30.00 in1015.9 mb 0.00 in0.0 mm 0.00 in0.0 mm 0.00 in0.0 mm
10:10 AM 78.5°F25.8°C -- - Calm Calm -- 30.00 in1015.9 mb 0.00 in0.0 mm 0.00 in0.0 mm 0.00 in0.0 mm
10:15 AM 78.8°F26.0°C -- - Calm Calm -- 30.00 in1015.9 mb 0.00 in0.0 mm 0.00 in0.0 mm 0.00 in0.0 mm
10:21 AM 79.0°F26.1°C -- - Calm Calm -- 30.00 in1015.9 mb 0.00 in0.0 mm 0.00 in0.0 mm 0.00 in0.0 mm
10:26 AM 79.4°F26.3°C -- - Calm Calm -- 30.00 in1015.9 mb 0.00 in0.0 mm 0.00 in0.0 mm 0.00 in0.0 mm
10:31 AM 79.6°F26.4°C -- - Calm Calm -- 29.99 in1015.6 mb 0.00 in0.0 mm 0.00 in0.0 mm 0.00 in0.0 mm
10:37 AM 79.9°F26.6°C -- - Calm Calm -- 29.99 in1015.6 mb 0.00 in0.0 mm 0.00 in0.0 mm 0.00 in0.0 mm
10:42 AM 80.3°F26.8°C -- - Calm Calm -- 29.99 in1015.6 mb 0.00 in0.0 mm 0.00 in0.0 mm 0.00 in0.0 mm
10:47 AM 80.5°F26.9°C -- - Calm Calm -- 29.99 in1015.6 mb 0.00 in0.0 mm 0.00 in0.0 mm 0.00 in0.0 mm
10:52 AM 81.0°F27.2°C -- - Calm Calm -- 29.99 in1015.6 mb 0.00 in0.0 mm 0.00 in0.0 mm 0.00 in0.0 mm
10:58 AM 81.0°F27.2°C -- - Calm Calm -- 29.99 in1015.6 mb 0.00 in0.0 mm 0.00 in0.0 mm 0.00 in0.0 mm
11:03 AM 81.2°F27.3°C -- - Calm Calm -- 29.99 in1015.6 mb 0.00 in0.0 mm 0.00 in0.0 mm 0.00 in0.0 mm
11:08 AM 81.4°F27.4°C -- - Calm Calm -- 29.99 in1015.6 mb 0.00 in0.0 mm 0.00 in0.0 mm 0.00 in0.0 mm
11:14 AM 81.4°F27.4°C -- - Calm Calm -- 29.98 in1015.2 mb 0.00 in0.0 mm 0.00 in0.0 mm 0.00 in0.0 mm
11:19 AM 81.4°F27.4°C -- - Calm Calm -- 29.98 in1015.2 mb 0.00 in0.0 mm 0.00 in0.0 mm 0.00 in0.0 mm
11:24 AM 81.0°F27.2°C -- - Calm Calm -- 29.99 in1015.6 mb 0.00 in0.0 mm 0.00 in0.0 mm 0.00 in0.0 mm
11:30 AM 81.2°F27.3°C -- - Calm Calm -- 29.98 in1015.2 mb 0.00 in0.0 mm 0.00 in0.0 mm 0.00 in0.0 mm
11:35 AM 80.8°F27.1°C -- - Calm Calm -- 29.99 in1015.6 mb 0.00 in0.0 mm 0.00 in0.0 mm 0.00 in0.0 mm
11:40 AM 80.6°F27.0°C -- - Calm Calm -- 29.98 in1015.2 mb 0.00 in0.0 mm 0.00 in0.0 mm 0.00 in0.0 mm
11:45 AM 80.3°F26.8°C -- - Calm Calm -- 29.99 in1015.6 mb 0.00 in0.0 mm 0.00 in0.0 mm 0.00 in0.0 mm
11:50 AM 80.1°F26.7°C -- - Calm Calm -- 29.98 in1015.2 mb 0.00 in0.0 mm 0.00 in0.0 mm 0.00 in0.0 mm
11:56 AM 79.9°F26.6°C -- - Calm Calm -- 29.98 in1015.2 mb 0.00 in0.0 mm 0.00 in0.0 mm 0.00 in0.0 mm
12:01 PM 79.9°F26.6°C -- - Calm Calm -- 29.98 in1015.2 mb 0.32 in8.1 mm 0.35 in8.9 mm 0.32 in8.1 mm
12:06 PM 80.1°F26.7°C -- - Calm Calm -- 29.98 in1015.2 mb 0.32 in8.1 mm 0.00 in0.0 mm 0.32 in8.1 mm
12:11 PM 80.5°F26.9°C -- - Calm Calm -- 29.97 in1014.9 mb 0.32 in8.1 mm 0.00 in0.0 mm 0.32 in8.1 mm
12:16 PM 80.5°F26.9°C -- - Calm Calm -- 29.97 in1014.9 mb 0.32 in8.1 mm 0.00 in0.0 mm 0.32 in8.1 mm
12:21 PM 80.5°F26.9°C -- - Calm Calm -- 29.97 in1014.9 mb 0.32 in8.1 mm 0.00 in0.0 mm 0.32 in8.1 mm
12:27 PM 80.8°F27.1°C -- - 4.2 mph NNE6.8 kmh NNE 4.9 mph7.9 kmh 29.96 in1014.6 mb 0.32 in8.1 mm 0.00 in0.0 mm 0.32 in8.1 mm
12:34 PM 81.0°F27.2°C -- - 8.1 mph NNE13.0 kmh NNE 8.1 mph13.0 kmh 29.97 in1014.9 mb 0.32 in8.1 mm 0.00 in0.0 mm 0.32 in8.1 mm
12:40 PM 80.3°F26.8°C -- - 4.8 mph NNE7.7 kmh NNE 8.1 mph13.0 kmh 29.97 in1014.9 mb 0.32 in8.1 mm 0.00 in0.0 mm 0.32 in8.1 mm
12:45 PM 80.3°F26.8°C -- - 6.3 mph NNE10.1 kmh NNE 6.3 mph10.1 kmh 29.97 in1014.9 mb 0.32 in8.1 mm 0.00 in0.0 mm 0.32 in8.1 mm
12:50 PM 80.3°F26.8°C -- - 4.9 mph NNE7.9 kmh NNE 6.3 mph10.1 kmh 29.97 in1014.9 mb 0.32 in8.1 mm 0.00 in0.0 mm 0.32 in8.1 mm
12:55 PM 81.0°F27.2°C -- - 4.0 mph NNE6.4 kmh NNE 6.3 mph10.1 kmh 29.96 in1014.6 mb 0.32 in8.1 mm 0.00 in0.0 mm 0.32 in8.1 mm
01:00 PM 80.8°F27.1°C -- - 8.7 mph NNE14.0 kmh NNE 8.7 mph14.0 kmh 29.96 in1014.6 mb 0.29 in7.4 mm 0.00 in0.0 mm 0.32 in8.1 mm
01:05 PM 80.8°F27.1°C -- - 3.4 mph NNE5.5 kmh NNE 8.7 mph14.0 kmh 29.96 in1014.6 mb 0.00 in0.0 mm 0.00 in0.0 mm 0.32 in8.1 mm
01:10 PM 80.8°F27.1°C -- - 6.4 mph NNE10.3 kmh NNE 8.7 mph14.0 kmh 29.96 in1014.6 mb 0.00 in0.0 mm 0.00 in0.0 mm 0.32 in8.1 mm
01:15 PM 80.8°F27.1°C -- - 5.8 mph NNE9.3 kmh NNE 7.4 mph11.9 kmh 29.96 in1014.6 mb 0.00 in0.0 mm 0.00 in0.0 mm 0.32 in8.1 mm
01:20 PM 80.6°F27.0°C -- - 10.1 mph NNE16.3 kmh NNE 10.3 mph16.6 kmh 29.96 in1014.6 mb 0.00 in0.0 mm 0.00 in0.0 mm 0.32 in8.1 mm
01:25 PM 80.1°F26.7°C -- - 5.8 mph NNE9.3 kmh NNE 10.3 mph16.6 kmh 29.96 in1014.6 mb 0.00 in0.0 mm 0.00 in0.0 mm 0.32 in8.1 mm
01:30 PM 80.3°F26.8°C -- - 6.9 mph NNE11.1 kmh NNE 6.9 mph11.1 kmh 29.96 in1014.6 mb 0.00 in0.0 mm 0.00 in0.0 mm 0.32 in8.1 mm
01:36 PM 79.9°F26.6°C -- - 9.5 mph NNE15.3 kmh NNE 9.8 mph15.8 kmh 29.96 in1014.6 mb 0.00 in0.0 mm 0.00 in0.0 mm 0.32 in8.1 mm
01:42 PM 79.9°F26.6°C -- - 6.9 mph NNE11.1 kmh NNE 9.8 mph15.8 kmh 29.96 in1014.6 mb 0.00 in0.0 mm 0.00 in0.0 mm 0.32 in8.1 mm
01:49 PM 80.1°F26.7°C -- - 6.9 mph NNE11.1 kmh NNE 7.8 mph12.6 kmh 29.96 in1014.6 mb 0.00 in0.0 mm 0.00 in0.0 mm 0.32 in8.1 mm
01:54 PM 79.9°F26.6°C -- - 5.6 mph NNE9.0 kmh NNE 7.8 mph12.6 kmh 29.96 in1014.6 mb 0.00 in0.0 mm 0.00 in0.0 mm 0.32 in8.1 mm
02:01 PM 80.6°F27.0°C -- - 5.6 mph NNE9.0 kmh NNE 7.8 mph12.6 kmh 29.96 in1014.6 mb 0.00 in0.0 mm 0.00 in0.0 mm 0.32 in8.1 mm
02:06 PM 80.1°F26.7°C -- - 6.0 mph NNE9.7 kmh NNE 6.7 mph10.8 kmh 29.96 in1014.6 mb 0.00 in0.0 mm 0.00 in0.0 mm 0.32 in8.1 mm
02:11 PM 79.6°F26.4°C -- - 5.8 mph NNE9.3 kmh NNE 6.0 mph9.7 kmh 29.96 in1014.6 mb 0.00 in0.0 mm 0.00 in0.0 mm 0.32 in8.1 mm
02:16 PM 79.9°F26.6°C -- - 3.4 mph NNE5.5 kmh NNE 6.0 mph9.7 kmh 29.96 in1014.6 mb 0.00 in0.0 mm 0.00 in0.0 mm 0.32 in8.1 mm
02:21 PM 80.5°F26.9°C -- - 4.7 mph NNE7.6 kmh NNE 6.9 mph11.1 kmh 29.96 in1014.6 mb 0.00 in0.0 mm 0.00 in0.0 mm 0.32 in8.1 mm
02:26 PM 79.9°F26.6°C -- - 3.4 mph NNE5.5 kmh NNE 6.9 mph11.1 kmh 29.96 in1014.6 mb 0.00 in0.0 mm 0.00 in0.0 mm 0.32 in8.1 mm
02:34 PM 79.9°F26.6°C -- - 4.7 mph NNE7.6 kmh NNE 6.9 mph11.1 kmh 29.96 in1014.6 mb 0.00 in0.0 mm 0.00 in0.0 mm 0.32 in8.1 mm
02:39 PM 80.1°F26.7°C -- - 1.1 mph NNE1.8 kmh NNE 4.7 mph7.6 kmh 29.96 in1014.6 mb 0.00 in0.0 mm 0.00 in0.0 mm 0.32 in8.1 mm
02:44 PM 80.5°F26.9°C -- - 4.0 mph NNE6.4 kmh NNE 6.3 mph10.1 kmh 29.96 in1014.6 mb 0.00 in0.0 mm 0.00 in0.0 mm 0.32 in8.1 mm
02:49 PM 80.3°F26.8°C -- - 4.9 mph NNE7.9 kmh NNE 6.3 mph10.1 kmh 29.96 in1014.6 mb 0.00 in0.0 mm 0.00 in0.0 mm 0.32 in8.1 mm
02:54 PM 79.9°F26.6°C -- - 3.4 mph NNE5.5 kmh NNE 6.3 mph10.1 kmh 29.96 in1014.6 mb 0.00 in0.0 mm 0.00 in0.0 mm 0.32 in8.1 mm
03:00 PM 79.9°F26.6°C -- - 2.3 mph NNE3.7 kmh NNE 4.9 mph7.9 kmh 29.95 in1014.2 mb 0.00 in0.0 mm 0.00 in0.0 mm 0.32 in8.1 mm
03:05 PM 79.9°F26.6°C -- - 3.6 mph NNE5.8 kmh NNE 3.6 mph5.8 kmh 29.96 in1014.6 mb 0.00 in0.0 mm 0.00 in0.0 mm 0.32 in8.1 mm
03:10 PM 79.7°F26.5°C -- - 3.1 mph NNE5.0 kmh NNE 5.4 mph8.7 kmh 29.95 in1014.2 mb 0.00 in0.0 mm 0.00 in0.0 mm 0.32 in8.1 mm
03:19 PM 80.1°F26.7°C -- - 3.2 mph NNE5.1 kmh NNE 5.4 mph8.7 kmh 29.95 in1014.2 mb 0.00 in0.0 mm 0.00 in0.0 mm 0.32 in8.1 mm
03:26 PM 80.3°F26.8°C -- - 3.8 mph NNE6.1 kmh NNE 6.0 mph9.7 kmh 29.95 in1014.2 mb 0.00 in0.0 mm 0.00 in0.0 mm 0.32 in8.1 mm
03:31 PM 80.3°F26.8°C -- - 3.8 mph NNE6.1 kmh NNE 6.9 mph11.1 kmh 29.95 in1014.2 mb 0.00 in0.0 mm 0.00 in0.0 mm 0.32 in8.1 mm
03:37 PM 80.3°F26.8°C -- - 6.9 mph NNE11.1 kmh NNE 6.9 mph11.1 kmh 29.95 in1014.2 mb 0.00 in0.0 mm 0.00 in0.0 mm 0.32 in8.1 mm
03:42 PM 79.7°F26.5°C -- - 2.1 mph NNE3.4 kmh NNE 6.9 mph11.1 kmh 29.95 in1014.2 mb 0.00 in0.0 mm 0.00 in0.0 mm 0.32 in8.1 mm
03:47 PM 79.6°F26.4°C -- - 6.4 mph NNE10.3 kmh NNE 7.4 mph11.9 kmh 29.95 in1014.2 mb 0.00 in0.0 mm 0.00 in0.0 mm 0.32 in8.1 mm
03:52 PM 79.4°F26.3°C -- - 3.1 mph NNE5.0 kmh NNE 7.4 mph11.9 kmh 29.95 in1014.2 mb 0.00 in0.0 mm 0.00 in0.0 mm 0.32 in8.1 mm
03:57 PM 79.6°F26.4°C -- - 9.2 mph NNE14.8 kmh NNE 9.2 mph14.8 kmh 29.95 in1014.2 mb 0.00 in0.0 mm 0.00 in0.0 mm 0.32 in8.1 mm
04:04 PM 78.8°F26.0°C -- - 2.9 mph NNE4.7 kmh NNE 9.2 mph14.8 kmh 29.95 in1014.2 mb 0.00 in0.0 mm 0.00 in0.0 mm 0.32 in8.1 mm
04:11 PM 79.2°F26.2°C -- - 0.7 mph NNE1.1 kmh NNE 6.3 mph10.1 kmh 29.94 in1013.9 mb 0.00 in0.0 mm 0.00 in0.0 mm 0.32 in8.1 mm
04:17 PM 79.2°F26.2°C -- - 3.4 mph NNE5.5 kmh NNE 3.4 mph5.5 kmh 29.94 in1013.9 mb 0.00 in0.0 mm 0.00 in0.0 mm 0.32 in8.1 mm
04:22 PM 79.0°F26.1°C -- - 2.5 mph NNE4.0 kmh NNE 4.3 mph6.9 kmh 29.94 in1013.9 mb 0.00 in0.0 mm 0.00 in0.0 mm 0.32 in8.1 mm
04:27 PM 78.8°F26.0°C -- - 3.4 mph NNE5.5 kmh NNE 4.3 mph6.9 kmh 29.94 in1013.9 mb 0.00 in0.0 mm 0.00 in0.0 mm 0.32 in8.1 mm
04:32 PM 78.8°F26.0°C -- - 1.9 mph NNE3.1 kmh NNE 4.0 mph6.4 kmh 29.94 in1013.9 mb 0.00 in0.0 mm 0.00 in0.0 mm 0.32 in8.1 mm
04:37 PM 78.8°F26.0°C -- - 3.2 mph NNE5.1 kmh NNE 4.0 mph6.4 kmh 29.94 in1013.9 mb 0.00 in0.0 mm 0.00 in0.0 mm 0.32 in8.1 mm
04:42 PM 78.8°F26.0°C -- - 4.7 mph NNE7.6 kmh NNE 4.7 mph7.6 kmh 29.95 in1014.2 mb 0.00 in0.0 mm 0.00 in0.0 mm 0.32 in8.1 mm
04:47 PM 78.8°F26.0°C -- - 1.8 mph NNE2.9 kmh NNE 4.7 mph7.6 kmh 29.94 in1013.9 mb 0.00 in0.0 mm 0.00 in0.0 mm 0.32 in8.1 mm
04:53 PM 78.7°F25.9°C -- - 3.7 mph NNE6.0 kmh NNE 4.7 mph7.6 kmh 29.94 in1013.9 mb 0.00 in0.0 mm 0.00 in0.0 mm 0.32 in8.1 mm
04:58 PM 78.5°F25.8°C -- - 6.3 mph NNE10.1 kmh NNE 6.3 mph10.1 kmh 29.94 in1013.9 mb 0.00 in0.0 mm 0.00 in0.0 mm 0.32 in8.1 mm
05:04 PM 78.1°F25.6°C -- - 4.3 mph NNE6.9 kmh NNE 6.3 mph10.1 kmh 29.95 in1014.2 mb 0.00 in0.0 mm 0.00 in0.0 mm 0.32 in8.1 mm
05:10 PM 78.3°F25.7°C -- - 2.0 mph NNE3.2 kmh NNE 6.3 mph10.1 kmh 29.95 in1014.2 mb 0.00 in0.0 mm 0.00 in0.0 mm 0.32 in8.1 mm
05:15 PM 78.1°F25.6°C -- - 2.0 mph NNE3.2 kmh NNE 2.0 mph3.2 kmh 29.95 in1014.2 mb 0.00 in0.0 mm 0.00 in0.0 mm 0.32 in8.1 mm
05:20 PM 77.8°F25.4°C -- - 3.3 mph NNE5.3 kmh NNE 3.6 mph5.8 kmh 29.95 in1014.2 mb 0.00 in0.0 mm 0.00 in0.0 mm 0.32 in8.1 mm
05:25 PM 77.6°F25.3°C -- - 2.5 mph NNE4.0 kmh NNE 3.6 mph5.8 kmh 29.95 in1014.2 mb 0.00 in0.0 mm 0.00 in0.0 mm 0.32 in8.1 mm
05:31 PM 77.2°F25.1°C -- - 3.7 mph NNE6.0 kmh NNE 3.8 mph6.1 kmh 29.95 in1014.2 mb 0.00 in0.0 mm 0.00 in0.0 mm 0.32 in8.1 mm
05:37 PM 77.0°F25.0°C -- - 2.5 mph NNE4.0 kmh NNE 3.8 mph6.1 kmh 29.95 in1014.2 mb 0.00 in0.0 mm 0.00 in0.0 mm 0.32 in8.1 mm
05:42 PM 76.9°F24.9°C -- - 2.0 mph NNE3.2 kmh NNE 3.4 mph5.5 kmh 29.95 in1014.2 mb 0.00 in0.0 mm 0.00 in0.0 mm 0.32 in8.1 mm
05:47 PM 76.7°F24.8°C -- - 2.8 mph NNE4.5 kmh NNE 3.1 mph5.0 kmh 29.95 in1014.2 mb 0.00 in0.0 mm 0.00 in0.0 mm 0.32 in8.1 mm
05:52 PM 76.5°F24.7°C -- - 0.4 mph NNE0.6 kmh NNE 3.1 mph5.0 kmh 29.96 in1014.6 mb 0.00 in0.0 mm 0.00 in0.0 mm 0.32 in8.1 mm
05:57 PM 76.0°F24.4°C -- - 2.4 mph NNE3.9 kmh NNE 2.7 mph4.3 kmh 29.95 in1014.2 mb 0.00 in0.0 mm 0.00 in0.0 mm 0.32 in8.1 mm
06:02 PM 76.0°F24.4°C -- - 1.3 mph NNE2.1 kmh NNE 2.7 mph4.3 kmh 29.95 in1014.2 mb 0.00 in0.0 mm 0.00 in0.0 mm 0.32 in8.1 mm
06:07 PM 75.6°F24.2°C -- - 4.7 mph NNE7.6 kmh NNE 4.7 mph7.6 kmh 29.95 in1014.2 mb 0.00 in0.0 mm 0.00 in0.0 mm 0.32 in8.1 mm
06:12 PM 75.2°F24.0°C -- - 4.2 mph NNE6.8 kmh NNE 4.7 mph7.6 kmh 29.95 in1014.2 mb 0.00 in0.0 mm 0.00 in0.0 mm 0.32 in8.1 mm
06:17 PM 74.9°F23.8°C -- - 2.7 mph NNE4.3 kmh NNE 4.7 mph7.6 kmh 29.96 in1014.6 mb 0.00 in0.0 mm 0.00 in0.0 mm 0.32 in8.1 mm
06:23 PM 74.5°F23.6°C -- - 2.5 mph NNE4.0 kmh NNE 3.4 mph5.5 kmh 29.96 in1014.6 mb 0.00 in0.0 mm 0.00 in0.0 mm 0.32 in8.1 mm
06:28 PM 74.3°F23.5°C -- - 1.5 mph NNE2.4 kmh NNE 3.4 mph5.5 kmh 29.96 in1014.6 mb 0.00 in0.0 mm 0.00 in0.0 mm 0.32 in8.1 mm
06:33 PM 74.2°F23.4°C -- - 1.1 mph NNE1.8 kmh NNE 2.7 mph4.3 kmh 29.96 in1014.6 mb 0.00 in0.0 mm 0.00 in0.0 mm 0.32 in8.1 mm
06:39 PM 74.2°F23.4°C -- - 2.5 mph NNE4.0 kmh NNE 2.7 mph4.3 kmh 29.96 in1014.6 mb 0.00 in0.0 mm 0.00 in0.0 mm 0.32 in8.1 mm
06:44 PM 74.0°F23.3°C -- - 2.1 mph NNE3.4 kmh NNE 3.4 mph5.5 kmh 29.96 in1014.6 mb 0.00 in0.0 mm 0.00 in0.0 mm 0.32 in8.1 mm
06:49 PM 74.0°F23.3°C -- - 2.9 mph NNE4.7 kmh NNE 3.4 mph5.5 kmh 29.96 in1014.6 mb 0.00 in0.0 mm 0.00 in0.0 mm 0.32 in8.1 mm
06:53 PM 73.8°F23.2°C -- - 0.9 mph NNE1.4 kmh NNE 2.9 mph4.7 kmh 29.96 in1014.6 mb 0.00 in0.0 mm 0.00 in0.0 mm 0.32 in8.1 mm
06:59 PM 73.8°F23.2°C -- - 0.9 mph NNE1.4 kmh NNE 2.9 mph4.7 kmh 29.96 in1014.6 mb 0.00 in0.0 mm 0.00 in0.0 mm 0.32 in8.1 mm
07:04 PM 73.6°F23.1°C -- - 1.1 mph NNE1.8 kmh NNE 1.8 mph2.9 kmh 29.96 in1014.6 mb 0.00 in0.0 mm 0.00 in0.0 mm 0.32 in8.1 mm
07:10 PM 73.4°F23.0°C -- - 1.4 mph NNE2.3 kmh NNE 1.8 mph2.9 kmh 29.96 in1014.6 mb 0.00 in0.0 mm 0.00 in0.0 mm 0.32 in8.1 mm
07:16 PM 73.4°F23.0°C -- - 0.7 mph NNE1.1 kmh NNE 1.8 mph2.9 kmh 29.96 in1014.6 mb 0.00 in0.0 mm 0.00 in0.0 mm 0.32 in8.1 mm
07:21 PM 73.3°F22.9°C -- - 1.4 mph NNE2.3 kmh NNE 2.0 mph3.2 kmh 29.96 in1014.6 mb 0.00 in0.0 mm 0.00 in0.0 mm 0.32 in8.1 mm
07:26 PM 73.3°F22.9°C -- - Calm Calm 2.0 mph3.2 kmh 29.96 in1014.6 mb 0.00 in0.0 mm 0.00 in0.0 mm 0.32 in8.1 mm
07:31 PM 73.1°F22.8°C -- - 0.4 mph NNE0.6 kmh NNE 0.7 mph1.1 kmh 29.97 in1014.9 mb 0.00 in0.0 mm 0.00 in0.0 mm 0.32 in8.1 mm
07:36 PM 73.1°F22.8°C -- - 1.3 mph NNE2.1 kmh NNE 2.0 mph3.2 kmh 29.97 in1014.9 mb 0.00 in0.0 mm 0.00 in0.0 mm 0.32 in8.1 mm
07:43 PM 72.9°F22.7°C -- - 0.7 mph NNE1.1 kmh NNE 1.3 mph2.1 kmh 29.96 in1014.6 mb 0.00 in0.0 mm 0.00 in0.0 mm 0.32 in8.1 mm
07:48 PM 72.5°F22.5°C -- - 0.8 mph NNE1.3 kmh NNE 2.7 mph4.3 kmh 29.96 in1014.6 mb 0.00 in0.0 mm 0.00 in0.0 mm 0.32 in8.1 mm
07:53 PM 72.5°F22.5°C -- - 2.0 mph NNE3.2 kmh NNE 2.7 mph4.3 kmh 29.96 in1014.6 mb 0.00 in0.0 mm 0.00 in0.0 mm 0.32 in8.1 mm
07:59 PM 72.4°F22.4°C -- - 2.0 mph NNE3.2 kmh NNE 2.7 mph4.3 kmh 29.96 in1014.6 mb 0.00 in0.0 mm 0.00 in0.0 mm 0.32 in8.1 mm
08:04 PM 72.4°F22.4°C -- - 0.2 mph NNE0.3 kmh NNE 2.0 mph3.2 kmh 29.96 in1014.6 mb 0.00 in0.0 mm 0.00 in0.0 mm 0.32 in8.1 mm
08:10 PM 72.0°F22.2°C -- - 1.7 mph NNE2.7 kmh NNE 2.9 mph4.7 kmh 29.97 in1014.9 mb 0.00 in0.0 mm 0.00 in0.0 mm 0.32 in8.1 mm
08:15 PM 72.0°F22.2°C -- - 1.6 mph NNE2.6 kmh NNE 2.9 mph4.7 kmh 29.96 in1014.6 mb 0.00 in0.0 mm 0.00 in0.0 mm 0.32 in8.1 mm
08:20 PM 72.0°F22.2°C -- - 0.9 mph NNE1.4 kmh NNE 1.6 mph2.6 kmh 29.96 in1014.6 mb 0.00 in0.0 mm 0.00 in0.0 mm 0.32 in8.1 mm
08:25 PM 71.8°F22.1°C -- - 1.8 mph NNE2.9 kmh NNE 2.0 mph3.2 kmh 29.97 in1014.9 mb 0.00 in0.0 mm 0.00 in0.0 mm 0.32 in8.1 mm
08:30 PM 71.6°F22.0°C -- - 1.6 mph NNE2.6 kmh NNE 2.0 mph3.2 kmh 29.97 in1014.9 mb 0.00 in0.0 mm 0.00 in0.0 mm 0.32 in8.1 mm
08:36 PM 71.6°F22.0°C -- - 1.7 mph NNE2.7 kmh NNE 1.8 mph2.9 kmh 29.96 in1014.6 mb 0.00 in0.0 mm 0.00 in0.0 mm 0.32 in8.1 mm
08:41 PM 71.5°F21.9°C -- - 0.2 mph NNE0.3 kmh NNE 1.8 mph2.9 kmh 29.96 in1014.6 mb 0.00 in0.0 mm 0.00 in0.0 mm 0.32 in8.1 mm
08:46 PM 71.5°F21.9°C -- - 1.3 mph NNE2.1 kmh NNE 1.3 mph2.1 kmh 29.97 in1014.9 mb 0.00 in0.0 mm 0.00 in0.0 mm 0.32 in8.1 mm
08:51 PM 71.3°F21.8°C -- - Calm Calm 1.3 mph2.1 kmh 29.96 in1014.6 mb 0.00 in0.0 mm 0.00 in0.0 mm 0.32 in8.1 mm
08:57 PM 71.3°F21.8°C -- - 1.1 mph NNE1.8 kmh NNE 1.8 mph2.9 kmh 29.96 in1014.6 mb 0.00 in0.0 mm 0.00 in0.0 mm 0.32 in8.1 mm
09:03 PM 71.1°F21.7°C -- - 1.0 mph NNE1.6 kmh NNE 1.3 mph2.1 kmh 29.96 in1014.6 mb 0.00 in0.0 mm 0.00 in0.0 mm 0.32 in8.1 mm
09:08 PM 71.1°F21.7°C -- - Calm Calm 1.1 mph1.8 kmh 29.97 in1014.9 mb 0.00 in0.0 mm 0.00 in0.0 mm 0.32 in8.1 mm
09:14 PM 70.9°F21.6°C -- - 1.1 mph NNE1.8 kmh NNE 2.0 mph3.2 kmh 29.96 in1014.6 mb 0.00 in0.0 mm 0.00 in0.0 mm 0.32 in8.1 mm
09:20 PM 70.9°F21.6°C -- - 0.4 mph NNE0.6 kmh NNE 2.0 mph3.2 kmh 29.96 in1014.6 mb 0.00 in0.0 mm 0.00 in0.0 mm 0.32 in8.1 mm
09:25 PM 70.9°F21.6°C -- - 0.3 mph NNE0.5 kmh NNE 2.0 mph3.2 kmh 29.96 in1014.6 mb 0.00 in0.0 mm 0.00 in0.0 mm 0.32 in8.1 mm
09:30 PM 70.7°F21.5°C -- - 0.4 mph NNE0.6 kmh NNE 0.7 mph1.1 kmh 29.96 in1014.6 mb 0.00 in0.0 mm 0.00 in0.0 mm 0.32 in8.1 mm
09:37 PM 70.6°F21.4°C -- - 0.2 mph NNE0.3 kmh NNE 1.8 mph2.9 kmh 29.96 in1014.6 mb 0.00 in0.0 mm 0.00 in0.0 mm 0.32 in8.1 mm
09:42 PM 70.6°F21.4°C -- - 1.3 mph NNE2.1 kmh NNE 1.8 mph2.9 kmh 29.96 in1014.6 mb 0.00 in0.0 mm 0.00 in0.0 mm 0.32 in8.1 mm
09:47 PM 70.6°F21.4°C -- - 0.6 mph NNE1.0 kmh NNE 1.8 mph2.9 kmh 29.96 in1014.6 mb 0.00 in0.0 mm 0.00 in0.0 mm 0.32 in8.1 mm
09:53 PM 70.4°F21.3°C -- - 0.4 mph NNE0.6 kmh NNE 1.1 mph1.8 kmh 29.96 in1014.6 mb 0.00 in0.0 mm 0.00 in0.0 mm 0.32 in8.1 mm
09:58 PM 70.2°F21.2°C -- - 0.2 mph NNE0.3 kmh NNE 0.7 mph1.1 kmh 29.96 in1014.6 mb 0.00 in0.0 mm 0.00 in0.0 mm 0.32 in8.1 mm
10:04 PM 70.2°F21.2°C -- - Calm Calm 0.2 mph0.3 kmh 29.96 in1014.6 mb 0.00 in0.0 mm 0.00 in0.0 mm 0.32 in8.1 mm
10:09 PM 70.2°F21.2°C -- - Calm Calm 0.2 mph0.3 kmh 29.96 in1014.6 mb 0.00 in0.0 mm 0.00 in0.0 mm 0.32 in8.1 mm
10:14 PM 70.0°F21.1°C -- - 0.1 mph NNE0.2 kmh NNE 0.2 mph0.3 kmh 29.96 in1014.6 mb 0.00 in0.0 mm 0.00 in0.0 mm 0.32 in8.1 mm
10:20 PM 70.0°F21.1°C -- - Calm Calm 0.2 mph0.3 kmh 29.96 in1014.6 mb 0.00 in0.0 mm 0.00 in0.0 mm 0.32 in8.1 mm
10:25 PM 69.8°F21.0°C -- - Calm Calm 0.2 mph0.3 kmh 29.96 in1014.6 mb 0.00 in0.0 mm 0.00 in0.0 mm 0.32 in8.1 mm
10:32 PM 69.7°F20.9°C -- - 0.2 mph NNE0.3 kmh NNE 0.4 mph0.6 kmh 29.96 in1014.6 mb 0.00 in0.0 mm 0.00 in0.0 mm 0.32 in8.1 mm
10:37 PM 69.7°F20.9°C -- - Calm Calm 0.4 mph0.6 kmh 29.96 in1014.6 mb 0.00 in0.0 mm 0.00 in0.0 mm 0.32 in8.1 mm
10:42 PM 69.5°F20.8°C -- - 0.4 mph NNE0.6 kmh NNE 0.4 mph0.6 kmh 29.95 in1014.2 mb 0.00 in0.0 mm 0.00 in0.0 mm 0.32 in8.1 mm
10:47 PM 69.5°F20.8°C -- - 1.8 mph NNE2.9 kmh NNE 1.8 mph2.9 kmh 29.96 in1014.6 mb 0.00 in0.0 mm 0.00 in0.0 mm 0.32 in8.1 mm
10:52 PM 69.3°F20.7°C -- - 0.5 mph NNE0.8 kmh NNE 1.8 mph2.9 kmh 29.95 in1014.2 mb 0.00 in0.0 mm 0.00 in0.0 mm 0.32 in8.1 mm
10:58 PM 69.3°F20.7°C -- - 3.0 mph NNE4.8 kmh NNE 3.1 mph5.0 kmh 29.95 in1014.2 mb 0.00 in0.0 mm 0.00 in0.0 mm 0.32 in8.1 mm
11:03 PM 69.3°F20.7°C -- - 3.4 mph NNE5.5 kmh NNE 3.4 mph5.5 kmh 29.96 in1014.6 mb 0.00 in0.0 mm 0.00 in0.0 mm 0.32 in8.1 mm
11:08 PM 69.3°F20.7°C -- - Calm Calm 3.4 mph5.5 kmh 29.95 in1014.2 mb 0.00 in0.0 mm 0.00 in0.0 mm 0.32 in8.1 mm
11:13 PM 69.3°F20.7°C -- - 0.1 mph NNE0.2 kmh NNE 3.4 mph5.5 kmh 29.95 in1014.2 mb 0.00 in0.0 mm 0.00 in0.0 mm 0.32 in8.1 mm
11:18 PM 69.1°F20.6°C -- - 0.2 mph NNE0.3 kmh NNE 0.4 mph0.6 kmh 29.95 in1014.2 mb 0.00 in0.0 mm 0.00 in0.0 mm 0.32 in8.1 mm
11:24 PM 69.3°F20.7°C -- - 0.1 mph NNE0.2 kmh NNE 0.4 mph0.6 kmh 29.95 in1014.2 mb 0.00 in0.0 mm 0.00 in0.0 mm 0.32 in8.1 mm
11:32 PM 69.1°F20.6°C -- - 0.3 mph NNE0.5 kmh NNE 0.9 mph1.4 kmh 29.95 in1014.2 mb 0.00 in0.0 mm 0.00 in0.0 mm 0.32 in8.1 mm
11:37 PM 69.1°F20.6°C -- - 0.6 mph NNE1.0 kmh NNE 1.1 mph1.8 kmh 29.95 in1014.2 mb 0.00 in0.0 mm 0.00 in0.0 mm 0.32 in8.1 mm
11:46 PM 69.1°F20.6°C -- - Calm Calm 1.1 mph1.8 kmh 29.95 in1014.2 mb 0.00 in0.0 mm 0.00 in0.0 mm 0.32 in8.1 mm
11:51 PM 68.9°F20.5°C -- - Calm Calm 0.2 mph0.3 kmh 29.95 in1014.2 mb 0.00 in0.0 mm 0.00 in0.0 mm 0.32 in8.1 mm
11:56 PM 68.8°F20.4°C -- - 0.3 mph NNE0.5 kmh NNE 0.4 mph0.6 kmh 29.95 in1014.2 mb 0.00 in0.0 mm 0.00 in0.0 mm 0.32 in8.1 mm